Location: Central Coast
(33.3208°S, 151.2336°E)
Time: 23:50:44
(UTC+11:00)

Envisat - Pass Details

Date: 11 October 2017
Orbit: 764 x 766 km, 98.2° (Epoch: 18 December)

Event Time Altitude Azimuth Distance (km) Brightness Sun altitude
Rises 21:39:56 0° 171° (S) 3,262 6.6 -30.9°
Reaches altitude 10° 21:42:16 10° 174° (S) 2,329 5.8 -31.3°
Enters shadow 21:45:26 38° 185° (S) 1,175 4.1 -31.8°
